Location: Newark
(13.8625°N, 100.5144°E)
Time: 03:53:20
(UTC+00:00)

Hubble Space Telescope - Pass Details

Date: 13 May 2021
Orbit: 535 x 539 km, 28.5° (Epoch: 21 June)

Event Time Altitude Azimuth Distance (km) Brightness Sun altitude
Exits shadow 22:11:51 - 217° (SW) 1,822 3.0 -9.9°
Reaches altitude 10° 22:12:00 10° 216° (SW) 1,772 2.9 -9.8°
Maximum altitude 22:15:44 34° 150° (SSE) 885 2.0 -9.0°
Drops below altitude 10° 22:19:28 10° 85° (E) 1,771 4.9 -8.1°
Sets 22:21:51 0° 75° (ENE) 2,661 6.7 -7.6°
